Regional Weather Roundup
Issued by NWS

Home | Current Version | Previous Version | Text Only | Print | Product List | Glossary On
Versions: 1 2 3 4 5 6 7 8 9 10 11 12 13 14 15 16 17 18 19 20 21 22 23 24 25 26 27 28 29 30 31 32 33 34 35 36 37 38 39 40 41 42 43 44 45 46 47 48 49 50
785
ASCA44 KEWX 300920
RWRMX

LATIN AMERICA AND CARIBBEAN REGIONAL WEATHER ROUNDUP
NATIONAL WEATHER SERVICE AUSTIN/SAN ANTONIO TX
400 AM CDT THU MAR 30 2017

NOTE: "FAIR" INDICATED FEW OR NO CLOUDS BELOW 12,000 FEET WITH NO
SIGNIFICANT WEATHER AND/OR OBSTRUCTIONS TO VISIBILITY.

BAJA CALIFORNIA

CITY           SKY/WX    TMP DP  RH WIND       PRES   REMARKS
MEXICALI         N/A    N/A N/A N/A MISG        N/A
S.J. DEL CABO    N/A    N/A N/A N/A MISG        N/A
TIJUANA        CLEAR     57  36  44 SE3       30.04S

NORTHWESTERN MEXICO

CITY           SKY/WX    TMP DP  RH WIND       PRES   REMARKS
HERMOSILLO     CLEAR     64  36  34 SE3       29.98F

NORTHEASTERN MEXICO

CITY           SKY/WX    TMP DP  RH WIND       PRES   REMARKS
MONCLOVA         N/A    N/A N/A N/A MISG        N/A
MONTERREY      MOCLDY    70  45  40 N6        29.95R
REYNOSA          N/A    N/A N/A N/A MISG        N/A
CD. VICTORIA     N/A    N/A N/A N/A MISG        N/A

WESTERN MEXICO

CITY           SKY/WX    TMP DP  RH WIND       PRES   REMARKS
AGUASCALIENTES   N/A    N/A N/A N/A MISG        N/A
COLIMA           N/A    N/A N/A N/A MISG        N/A
GUADALAJARA    CLEAR     52  30  43 CALM      30.12F
MAZATLAN       CLEAR     55  54  94 NE3       29.94F
P. VALLARTA    MOCLDY    68  68 100 CALM      29.90F
URUAPAN          N/A    N/A N/A N/A MISG        N/A
ZACATECAS        N/A    N/A N/A N/A MISG        N/A

CENTRAL MEXICO

CITY           SKY/WX    TMP DP  RH WIND       PRES   REMARKS
CUERNAVACA       N/A    N/A N/A N/A MISG        N/A
MEXICO CITY    PTCLDY    59  25  27 CALM      30.23F
MORELIA        CLEAR     50  36  57 CALM      30.16F
POZA RICA        N/A    N/A N/A N/A MISG        N/A
QUERETARO      PTCLDY    55  28  35 N8        30.21
S. LUIS POTOSI CLEAR     54   5  14 CALM      30.12S
TOLUCA         CLEAR     41  27  56 CALM      30.33F

SOUTHERN MEXICO

CITY           SKY/WX    TMP DP  RH WIND       PRES   REMARKS
ACAPULCO       CLEAR     73  70  88 CALM      29.86F
B. DE HUATULCO   N/A    N/A N/A N/A MISG        N/A
P. ESCONDIDO     N/A    N/A N/A N/A MISG        N/A
VERACRUZ         N/A    N/A N/A N/A MISG        N/A

YUCATAN PENINSULA

CITY           SKY/WX    TMP DP  RH WIND       PRES   REMARKS
CAMPECHE         N/A    N/A N/A N/A MISG        N/A
CANCUN         CLEAR     77  70  78 SE13      29.89S
CHETUMAL         N/A    N/A N/A N/A MISG        N/A
CD. DEL CARMEN   N/A    N/A N/A N/A MISG        N/A
COZUMEL          N/A    N/A N/A N/A MISG        N/A
MERIDA         CLEAR     75  70  83 SE14      29.80F
MINATITLAN       N/A    N/A N/A N/A MISG        N/A
TAPACHULA      CLEAR     72  72 100 CALM      29.85F

CENTRAL AMERICA

CITY           SKY/WX    TMP DP  RH WIND       PRES   REMARKS
MANAGUA        MOSUNNY   75  68  78 SE7       29.83

CARIBBEAN

CITY           SKY/WX    TMP DP  RH WIND       PRES   REMARKS
CURACAO        PTCLDY    81  75  83 E10       29.86S
KINGSTON       PTCLDY    77  66  69 NW7       29.89S
NASSAU         PTCLDY    68  61  77 NE3       30.02F
SAN JUAN       PTCLDY    77  72  83 N10       29.95R
SANTO DOMINGO  PTCLDY    73  68  83 VRB3      29.92S
ST. CROIX      MOCLDY    75  70  83 N6        29.94R
ST. MAARTEN    PTCLDY    77  72  83 NE9       29.92S
ST. THOMAS     LGT RAIN  75  70  83 NE15G21   29.94

$$





USA.gov is the U.S. government's official web portal to all federal, state and local government web resources and services.